Weather in Malomozhayskoye

Russia / Kaliningrad Oblast     54°55′10″N   22°12′16″E
temp.,
°C
wind,
m/s
gust,
m/s
humid.,
%
clouds,
%
prec.,
mm/h
press.,
hPa
HPBL,
m
16 may, sun
sun1623:00+8wnw119589 0.0 100910
02:00+7se119553 0.0 100910
05:00+8se2397100 0.0 100851
08:00+13se2483100 0.0 1008281
11:00+18se4560100 0.0 10071234
14:00+18se4667100 1.2 10061134
17:00+16se4982100 1.8 1005680
20:00+13ese3994100 3.4 1003250
17 may, mon
mon1723:00+13se3896100 0.6 1003245
02:00+12ssw2697100 0.9 1004233
05:00+11s2696100 0.1 1004196
08:00+13sw35830 0.1 1005412
11:00+17ssw23620 0.0 10061123
14:00+19ssw22520 0.0 10061573
17:00+19w11513 0.0 10051539
20:00+15nne22725 0.0 100426
18 may, tue
tue1823:00+12nne3681100 0.0 1003109
02:00+11nne3782100 0.0 1003159
05:00+11nnw3591100 0.0 100197
08:00+14nw3679100 0.0 1001357
11:00+17nw3568100 0.0 10011005
14:00+17wnw5578100 1.3 1003709
17:00+15wnw67725 1.1 1004673
20:00+10wnw51182100 1.1 1007394
19 may, wed
wed1923:00+9wnw3990100 0.0 1008251
02:00+9wnw3984100 0.0 1008351
05:00+9wnw2686100 0.0 1008220
08:00+10wnw2595100 0.8 1009224
11:00+10w2592100 1.1 1010265
14:00+14nnw2475100 1.3 1009737
17:00+14nw347693 0.5 1009762
20:00+10wnw4891100 0.9 1009271
20 may, thu
thu2023:00+7wnw3798100 0.0 1009172
02:00+6wnw3797100 0.0 1009162
05:00+7wnw3792100 0.0 1009211
08:00+10wnw3683100 0.0 1009356
11:00+15wnw456669 0.0 10101072
14:00+14wnw46685 0.1 1010833
17:00+14wnw6866100 0.0 1010829
20:00+10wnw497892 0.0 1012395